Location: Bailen
(14.1842°N, 120.7958°E)
Time: 17:40:09
(UTC+00:00)

BlueWalker 3 - Pass Details

Date: 12 January 2026
Orbit: 451 x 461 km, 53.2° (Epoch: 16 February)

Event Time Altitude Azimuth Distance (km) Brightness Sun altitude
Exits shadow 21:25:53 - 355° (N) 2,237 5.0 -14.1°
Reaches altitude 10° 21:28:15 10° 19° (NNE) 1,589 4.5 -13.6°
Maximum altitude 21:30:04 13° 50° (NE) 1,397 4.6 -13.2°
Drops below altitude 10° 21:31:53 10° 81° (E) 1,592 5.5 -12.8°
Sets 21:34:55 0° 109° (ESE) 2,469 7.6 -12.1°
